Location: *
(13.2257°S, 48.7193°W)
Time: 18:20:25
(UTC+00:00)

SL-16 R/B - Visible Passes

Search period start: 18 May 2026 00:00
Search period end: 28 May 2026 00:00
Orbit: 985 x 1007 km, 99.8° (Epoch: 18 May)

Date Brightness Start Highest point End Pass type
(mag) Time Alt. Az. Time Alt. Az. Time Alt. Az.
18 May 5.1 06:43:08 10° ESE 06:46:43 16° E 06:50:17 10° NE visible
18 May 2.7 08:24:09 10° S 08:30:09 47° WSW 08:36:06 10° NNW visible
19 May 4.1 07:11:53 10° SE 07:17:25 33° ENE 07:22:54 10° NNE visible
19 May 3.5 08:55:48 10° SSW 09:00:38 24° WSW 09:05:27 10° WNW visible
20 May 2.9 07:41:50 10° SSE 07:48:04 67° ENE 07:54:16 10° N visible
21 May 5.4 06:33:26 10° E 06:35:10 11° E 06:36:54 10° ENE visible
21 May 2.5 08:12:28 10° S 08:18:40 63° WSW 08:24:50 10° NNW visible
22 May 4.6 07:00:53 10° SE 07:05:53 25° E 07:10:51 10° NNE visible
22 May 3.2 08:43:46 10° SSW 08:49:11 31° WSW 08:54:35 10° NW visible
23 May 3.4 07:30:29 10° SSE 07:36:34 51° ENE 07:42:34 10° N visible
24 May 2.5 08:00:53 10° S 08:07:11 82° WSW 08:13:26 10° NNW visible
25 May 4.9 06:50:08 10° ESE 06:54:21 19° E 06:58:31 10° NE visible
25 May 2.9 08:31:55 10° S 08:37:44 41° WSW 08:43:31 10° NW visible
26 May 3.9 07:19:15 10° SE 07:25:03 38° ENE 07:30:45 10° NNE visible
26 May 3.7 09:03:47 10° SSW 09:08:12 20° WSW 09:12:36 10° WNW visible
27 May 2.6 07:49:23 10° SSE 07:55:41 78° ENE 08:01:55 10° N visible
